Time,TemperatureF,DewpointF,PressureIn,WindDirection,WindDirectionDegrees,WindSpeedMPH,WindSpeedGustMPH,Humidity,HourlyPrecipIn,Conditions,Clouds,dailyrainin,SoftwareType,DateUTC
2013-06-17 00:01:00,75.8,70.6,29.80,South,171,0.0,3.0,84,0.00,,---,0.00,VWS V14.01,2013-06-17 05:01:00,
2013-06-17 00:06:00,75.8,70.6,29.80,South,171,0.0,0.0,84,0.00,,---,0.00,VWS V14.01,2013-06-17 05:06:00,
2013-06-17 00:11:00,75.7,70.9,29.80,South,171,0.0,2.0,85,0.00,,---,0.00,VWS V14.01,2013-06-17 05:11:00,
2013-06-17 00:16:00,75.6,70.8,29.80,South,171,0.0,2.0,85,0.00,,---,0.00,VWS V14.01,2013-06-17 05:16:00,
2013-06-17 00:21:00,75.6,70.8,29.80,South,171,0.0,2.0,85,0.00,,---,0.00,VWS V14.01,2013-06-17 05:21:00,
2013-06-17 00:26:00,75.5,70.7,29.80,South,171,0.0,2.0,85,0.00,,---,0.00,VWS V14.01,2013-06-17 05:26:00,
2013-06-17 00:31:00,75.5,70.7,29.81,South,171,0.0,2.0,85,0.00,,---,0.00,VWS V14.01,2013-06-17 05:31:00,
2013-06-17 00:36:00,75.5,70.7,29.81,South,171,0.0,1.0,85,0.00,,---,0.00,VWS V14.01,2013-06-17 05:36:00,
2013-06-17 00:41:00,75.3,70.5,29.81,South,170,0.0,1.0,85,0.00,,---,0.00,VWS V14.01,2013-06-17 05:41:00,
2013-06-17 00:46:00,75.2,70.7,29.81,South,171,0.0,1.0,86,0.00,,---,0.00,VWS V14.01,2013-06-17 05:46:00,
2013-06-17 00:51:00,75.0,70.5,29.81,South,171,0.0,1.0,86,0.00,,---,0.00,VWS V14.01,2013-06-17 05:51:00,
2013-06-17 00:56:00,74.7,70.6,29.81,South,171,0.0,1.0,87,0.00,,---,0.00,VWS V14.01,2013-06-17 05:56:00,
2013-06-17 01:01:00,74.5,70.4,29.81,South,171,0.0,1.0,87,0.00,,---,0.00,VWS V14.01,2013-06-17 06:01:00,
2013-06-17 01:06:00,74.2,70.4,29.81,South,171,0.0,0.0,88,0.00,,---,0.00,VWS V14.01,2013-06-17 06:06:00,
2013-06-17 01:11:00,74.0,70.2,29.81,South,171,0.0,0.0,88,0.00,,---,0.00,VWS V14.01,2013-06-17 06:11:00,
2013-06-17 01:16:00,73.8,70.0,29.81,South,171,0.0,0.0,88,0.00,,---,0.00,VWS V14.01,2013-06-17 06:16:00,
2013-06-17 01:21:00,73.7,70.3,29.81,South,171,0.0,0.0,89,0.00,,---,0.00,VWS V14.01,2013-06-17 06:21:00,
2013-06-17 01:26:00,73.6,70.2,29.81,South,171,0.0,0.0,89,0.00,,---,0.00,VWS V14.01,2013-06-17 06:26:00,
2013-06-17 01:31:00,73.6,70.2,29.81,South,171,0.0,0.0,89,0.00,,---,0.00,VWS V14.01,2013-06-17 06:31:00,
2013-06-17 01:36:00,73.6,70.2,29.81,South,171,0.0,0.0,89,0.00,,---,0.00,VWS V14.01,2013-06-17 06:36:00,
2013-06-17 01:41:00,73.7,70.3,29.81,South,171,0.0,1.0,89,0.00,,---,0.00,VWS V14.01,2013-06-17 06:41:00,
2013-06-17 01:46:00,73.8,70.4,29.80,South,171,0.0,1.0,89,0.00,,---,0.00,VWS V14.01,2013-06-17 06:46:00,
2013-06-17 01:51:00,73.9,70.5,29.80,South,171,0.0,1.0,89,0.00,,---,0.00,VWS V14.01,2013-06-17 06:51:00,
2013-06-17 01:57:00,73.9,70.5,29.80,SSE,164,0.0,1.0,89,0.00,,---,0.00,VWS V14.01,2013-06-17 06:57:00,
2013-06-17 02:02:00,74.0,70.6,29.79,SSE,164,0.0,2.0,89,0.00,,---,0.00,VWS V14.01,2013-06-17 07:02:00,
2013-06-17 02:07:00,74.1,70.7,29.79,SSE,166,0.0,2.0,89,0.00,,---,0.00,VWS V14.01,2013-06-17 07:07:00,
2013-06-17 02:12:00,74.1,70.7,29.79,SSE,166,0.0,2.0,89,0.00,,---,0.00,VWS V14.01,2013-06-17 07:12:00,
2013-06-17 02:17:00,74.0,70.6,29.78,SSE,166,0.0,2.0,89,0.00,,---,0.00,VWS V14.01,2013-06-17 07:17:00,
2013-06-17 02:22:00,73.9,70.5,29.78,SSE,166,0.0,2.0,89,0.00,,---,0.00,VWS V14.01,2013-06-17 07:22:00,
2013-06-17 02:27:00,73.8,70.4,29.78,SSE,166,0.0,2.0,89,0.00,,---,0.00,VWS V14.01,2013-06-17 07:27:00,
2013-06-17 02:32:00,73.7,70.3,29.78,SSE,166,0.0,2.0,89,0.00,,---,0.00,VWS V14.01,2013-06-17 07:32:00,
2013-06-17 02:37:00,73.4,70.0,29.78,SSE,166,0.0,0.0,89,0.00,,---,0.00,VWS V14.01,2013-06-17 07:37:00,
2013-06-17 02:42:00,73.0,69.6,29.78,SSE,166,0.0,0.0,89,0.00,,---,0.00,VWS V14.01,2013-06-17 07:42:00,
2013-06-17 02:47:00,72.7,69.6,29.78,SSE,166,0.0,0.0,90,0.00,,---,0.00,VWS V14.01,2013-06-17 07:47:00,
2013-06-17 02:52:00,72.4,69.3,29.78,SSE,166,0.0,0.0,90,0.00,,---,0.00,VWS V14.01,2013-06-17 07:52:00,
2013-06-17 02:57:00,72.2,69.4,29.78,SSE,166,0.0,0.0,91,0.00,,---,0.00,VWS V14.01,2013-06-17 07:57:00,
2013-06-17 03:02:00,72.0,69.2,29.79,SSE,166,0.0,0.0,91,0.00,,---,0.00,VWS V14.01,2013-06-17 08:02:00,
2013-06-17 03:07:00,71.9,69.1,29.79,SSE,166,0.0,0.0,91,0.00,,---,0.00,VWS V14.01,2013-06-17 08:07:00,
2013-06-17 03:12:00,71.7,68.9,29.79,SSE,166,0.0,0.0,91,0.00,,---,0.00,VWS V14.01,2013-06-17 08:12:00,
2013-06-17 03:17:00,71.6,69.2,29.79,SSE,166,0.0,0.0,92,0.00,,---,0.00,VWS V14.01,2013-06-17 08:17:00,
2013-06-17 03:22:00,71.6,69.2,29.79,SSE,166,0.0,0.0,92,0.00,,---,0.00,VWS V14.01,2013-06-17 08:22:00,
2013-06-17 03:27:00,71.5,69.1,29.79,SSE,166,0.0,0.0,92,0.00,,---,0.00,VWS V14.01,2013-06-17 08:27:00,
2013-06-17 03:32:00,71.5,69.1,29.80,SSE,166,0.0,0.0,92,0.00,,---,0.00,VWS V14.01,2013-06-17 08:32:00,
2013-06-17 03:37:00,71.4,69.0,29.80,SSE,166,0.0,0.0,92,0.00,,---,0.00,VWS V14.01,2013-06-17 08:37:00,
2013-06-17 03:42:00,71.4,69.3,29.80,SSE,166,0.0,0.0,93,0.00,,---,0.00,VWS V14.01,2013-06-17 08:42:00,
2013-06-17 03:47:00,71.4,69.3,29.80,SSE,166,0.0,0.0,93,0.00,,---,0.00,VWS V14.01,2013-06-17 08:47:00,
2013-06-17 03:52:00,71.4,69.3,29.80,SSE,166,0.0,0.0,93,0.00,,---,0.00,VWS V14.01,2013-06-17 08:52:00,
2013-06-17 03:57:00,71.3,69.2,29.80,SSE,166,0.0,0.0,93,0.00,,---,0.00,VWS V14.01,2013-06-17 08:57:00,
2013-06-17 04:02:00,71.4,69.3,29.81,SSE,166,0.0,0.0,93,0.00,,---,0.00,VWS V14.01,2013-06-17 09:02:00,
2013-06-17 04:07:00,71.3,69.2,29.81,SSE,166,0.0,0.0,93,0.00,,---,0.00,VWS V14.01,2013-06-17 09:07:00,
2013-06-17 04:12:00,71.3,69.2,29.81,SSE,166,0.0,0.0,93,0.00,,---,0.00,VWS V14.01,2013-06-17 09:12:00,
2013-06-17 04:17:00,71.3,69.2,29.80,SSE,166,0.0,0.0,93,0.00,,---,0.00,VWS V14.01,2013-06-17 09:17:00,
2013-06-17 04:22:00,71.2,69.1,29.80,SSE,166,0.0,0.0,93,0.00,,---,0.00,VWS V14.01,2013-06-17 09:22:00,
2013-06-17 04:27:00,71.1,69.0,29.80,SSE,166,0.0,0.0,93,0.00,,---,0.00,VWS V14.01,2013-06-17 09:27:00,
2013-06-17 04:32:00,70.9,68.8,29.80,SSE,166,0.0,0.0,93,0.00,,---,0.00,VWS V14.01,2013-06-17 09:32:00,
2013-06-17 04:37:00,70.8,68.7,29.80,SSE,166,0.0,0.0,93,0.00,,---,0.00,VWS V14.01,2013-06-17 09:37:00,
2013-06-17 04:42:00,70.9,69.1,29.80,SSE,166,0.0,0.0,94,0.00,,---,0.00,VWS V14.01,2013-06-17 09:42:00,
2013-06-17 04:47:00,71.0,69.2,29.80,SSE,166,0.0,0.0,94,0.00,,---,0.00,VWS V14.01,2013-06-17 09:47:00,
2013-06-17 04:52:00,71.0,69.2,29.80,SSE,166,0.0,0.0,94,0.00,,---,0.00,VWS V14.01,2013-06-17 09:52:00,
2013-06-17 04:57:00,71.0,69.2,29.80,SSE,166,0.0,0.0,94,0.00,,---,0.00,VWS V14.01,2013-06-17 09:57:00,
2013-06-17 05:02:00,70.9,69.1,29.80,SSE,166,0.0,0.0,94,0.00,,---,0.00,VWS V14.01,2013-06-17 10:02:00,
2013-06-17 05:07:00,70.8,69.0,29.80,SSE,166,0.0,0.0,94,0.00,,---,0.00,VWS V14.01,2013-06-17 10:07:00,
2013-06-17 05:12:00,70.7,68.9,29.80,SSE,166,0.0,0.0,94,0.00,,---,0.00,VWS V14.01,2013-06-17 10:12:00,
2013-06-17 05:17:00,70.7,68.9,29.80,SSE,166,0.0,0.0,94,0.00,,---,0.00,VWS V14.01,2013-06-17 10:17:00,
2013-06-17 05:22:00,70.7,68.9,29.80,SSE,166,0.0,0.0,94,0.00,,---,0.00,VWS V14.01,2013-06-17 10:22:00,
2013-06-17 05:27:00,70.7,68.9,29.80,SSE,166,0.0,0.0,94,0.00,,---,0.00,VWS V14.01,2013-06-17 10:27:00,
2013-06-17 05:32:00,70.7,68.9,29.80,SSE,166,0.0,0.0,94,0.00,,---,0.00,VWS V14.01,2013-06-17 10:32:00,
2013-06-17 05:37:00,70.8,69.0,29.80,SSE,167,0.0,0.0,94,0.00,,---,0.00,VWS V14.01,2013-06-17 10:37:00,
2013-06-17 05:42:00,71.0,69.2,29.80,SSE,167,0.0,1.0,94,0.00,,---,0.00,VWS V14.01,2013-06-17 10:42:00,
2013-06-17 05:47:00,71.2,69.4,29.80,SSE,166,0.0,2.0,94,0.00,,---,0.00,VWS V14.01,2013-06-17 10:47:00,
2013-06-17 05:52:00,71.3,69.5,29.80,SSE,166,1.0,2.0,94,0.00,,---,0.00,VWS V14.01,2013-06-17 10:52:00,
2013-06-17 05:57:00,71.4,69.6,29.80,SSE,155,2.0,2.0,94,0.00,,---,0.00,VWS V14.01,2013-06-17 10:57:00,
2013-06-17 06:02:00,71.5,69.7,29.80,South,179,0.0,3.0,94,0.00,,---,0.00,VWS V14.01,2013-06-17 11:02:00,
2013-06-17 06:07:00,71.6,69.8,29.80,SSE,159,0.0,4.0,94,0.00,,---,0.00,VWS V14.01,2013-06-17 11:07:00,
2013-06-17 06:12:00,71.8,70.0,29.80,SSW,196,1.0,4.0,94,0.00,,---,0.00,VWS V14.01,2013-06-17 11:12:00,
2013-06-17 06:17:00,71.9,70.1,29.81,SSE,163,0.0,4.0,94,0.00,,---,0.00,VWS V14.01,2013-06-17 11:17:00,
2013-06-17 06:22:00,72.0,70.2,29.81,SSE,165,0.0,4.0,94,0.00,,---,0.00,VWS V14.01,2013-06-17 11:22:00,
2013-06-17 06:27:00,72.1,70.0,29.81,SSE,163,0.0,4.0,93,0.00,,---,0.00,VWS V14.01,2013-06-17 11:27:00,
2013-06-17 06:32:00,72.2,70.1,29.81,SSE,164,0.0,4.0,93,0.00,,---,0.00,VWS V14.01,2013-06-17 11:32:00,
2013-06-17 06:37:00,72.4,70.3,29.81,SSE,164,0.0,0.0,93,0.00,,---,0.00,VWS V14.01,2013-06-17 11:37:00,
2013-06-17 06:42:00,72.6,70.5,29.81,SSE,163,0.0,2.0,93,0.00,,---,0.00,VWS V14.01,2013-06-17 11:42:00,
2013-06-17 06:47:00,73.0,70.9,29.81,SSE,163,0.0,2.0,93,0.00,,---,0.00,VWS V14.01,2013-06-17 11:47:00,
2013-06-17 06:52:00,73.4,70.9,29.81,SSE,164,0.0,2.0,92,0.00,,---,0.00,VWS V14.01,2013-06-17 11:52:00,
2013-06-17 06:57:00,73.6,70.8,29.81,SSE,164,0.0,2.0,91,0.00,,---,0.00,VWS V14.01,2013-06-17 11:57:00,
2013-06-17 07:02:00,73.7,70.6,29.82,SE,146,0.0,2.0,90,0.00,,---,0.00,VWS V14.01,2013-06-17 12:02:00,
2013-06-17 07:07:00,73.8,70.7,29.82,SSE,155,0.0,4.0,90,0.00,,---,0.00,VWS V14.01,2013-06-17 12:07:00,
2013-06-17 07:12:00,74.2,71.1,29.82,SSE,156,0.0,4.0,90,0.00,,---,0.00,VWS V14.01,2013-06-17 12:12:00,
2013-06-17 07:17:00,74.4,70.9,29.82,SE,139,0.0,4.0,89,0.00,,---,0.00,VWS V14.01,2013-06-17 12:17:00,
2013-06-17 07:22:00,74.7,70.9,29.82,South,169,4.0,4.0,88,0.00,,---,0.00,VWS V14.01,2013-06-17 12:22:00,
2013-06-17 07:27:00,74.9,71.1,29.82,SSE,153,1.0,4.0,88,0.00,,---,0.00,VWS V14.01,2013-06-17 12:27:00,
2013-06-17 07:32:00,75.2,71.1,29.82,SSE,159,0.0,0.0,87,0.00,,---,0.00,VWS V14.01,2013-06-17 12:32:00,
2013-06-17 07:37:00,75.4,71.3,29.82,SSW,194,0.0,5.0,87,0.00,,---,0.00,VWS V14.01,2013-06-17 12:37:00,
2013-06-17 07:42:00,75.6,71.5,29.82,SSE,161,0.0,5.0,87,0.00,,---,0.00,VWS V14.01,2013-06-17 12:42:00,
2013-06-17 07:47:00,76.2,71.7,29.82,SE,145,2.0,5.0,86,0.00,,---,0.00,VWS V14.01,2013-06-17 12:47:00,
2013-06-17 07:52:00,76.7,71.9,29.82,SSE,148,0.0,5.0,85,0.00,,---,0.00,VWS V14.01,2013-06-17 12:52:00,
2013-06-17 07:57:00,77.3,72.1,29.82,SSE,148,0.0,5.0,84,0.00,,---,0.00,VWS V14.01,2013-06-17 12:57:00,
2013-06-17 08:02:00,77.8,72.2,29.81,SSE,148,0.0,5.0,83,0.00,,---,0.00,VWS V14.01,2013-06-17 13:02:00,
2013-06-17 08:07:00,78.6,72.7,29.81,SSE,148,0.0,0.0,82,0.00,,---,0.00,VWS V14.01,2013-06-17 13:07:00,
2013-06-17 08:12:00,79.0,72.7,29.81,SSE,163,0.0,1.0,81,0.00,,---,0.00,VWS V14.01,2013-06-17 13:12:00,
2013-06-17 08:17:00,79.4,72.7,29.81,SSE,163,0.0,1.0,80,0.00,,---,0.00,VWS V14.01,2013-06-17 13:17:00,
2013-06-17 08:22:00,79.6,72.9,29.81,SSE,163,0.0,1.0,80,0.00,,---,0.00,VWS V14.01,2013-06-17 13:22:00,
2013-06-17 08:27:00,79.8,72.7,29.81,South,179,0.0,3.0,79,0.00,,---,0.00,VWS V14.01,2013-06-17 13:27:00,
2013-06-17 08:32:00,79.8,72.7,29.80,SSE,163,0.0,0.0,79,0.00,,---,0.00,VWS V14.01,2013-06-17 13:32:00,
2013-06-17 08:37:00,79.9,72.8,29.80,SSE,163,0.0,1.0,79,0.00,,---,0.00,VWS V14.01,2013-06-17 13:37:00,
2013-06-17 08:42:00,80.4,73.3,29.80,SSE,162,0.0,1.0,79,0.00,,---,0.00,VWS V14.01,2013-06-17 13:42:00,
2013-06-17 08:47:00,81.2,73.7,29.80,ESE,116,0.0,1.0,78,0.00,,---,0.00,VWS V14.01,2013-06-17 13:47:00,
2013-06-17 08:52:00,81.4,73.5,29.80,SSE,155,3.0,4.0,77,0.00,,---,0.00,VWS V14.01,2013-06-17 13:52:00,
2013-06-17 08:57:00,81.7,74.6,29.80,East,85,0.0,4.0,79,0.00,,---,0.00,VWS V14.01,2013-06-17 13:57:00,
2013-06-17 09:02:00,82.4,74.9,29.79,SE,140,0.0,1.0,78,0.00,,---,0.00,VWS V14.01,2013-06-17 14:02:00,
2013-06-17 09:07:00,82.8,74.9,29.79,ESE,118,0.0,2.0,77,0.00,,---,0.00,VWS V14.01,2013-06-17 14:07:00,
2013-06-17 09:12:00,83.1,74.8,29.79,East,86,1.0,2.0,76,0.00,,---,0.00,VWS V14.01,2013-06-17 14:12:00,
2013-06-17 09:17:00,83.0,74.3,29.79,East,82,0.0,3.0,75,0.00,,---,0.00,VWS V14.01,2013-06-17 14:17:00,
2013-06-17 09:22:00,83.2,74.8,29.79,East,81,0.0,3.0,76,0.00,,---,0.00,VWS V14.01,2013-06-17 14:22:00,
2013-06-17 09:27:00,83.5,74.8,29.79,ESE,123,0.0,3.0,75,0.00,,---,0.00,VWS V14.01,2013-06-17 14:27:00,
2013-06-17 09:32:00,84.3,74.3,29.78,SSE,157,0.0,1.0,72,0.00,,---,0.00,VWS V14.01,2013-06-17 14:32:00,
2013-06-17 09:37:00,84.1,74.5,29.78,East,84,1.0,4.0,73,0.00,,---,0.00,VWS V14.01,2013-06-17 14:37:00,
2013-06-17 09:42:00,84.1,74.9,29.78,SSE,161,0.0,4.0,74,0.00,,---,0.00,VWS V14.01,2013-06-17 14:42:00,
2013-06-17 09:47:00,84.5,75.3,29.78,SSE,154,0.0,4.0,74,0.00,,---,0.00,VWS V14.01,2013-06-17 14:47:00,
2013-06-17 09:52:00,85.0,76.2,29.78,SSW,196,1.0,4.0,75,0.00,,---,0.00,VWS V14.01,2013-06-17 14:52:00,
2013-06-17 09:57:00,85.4,75.8,29.78,SSE,150,0.0,4.0,73,0.00,,---,0.00,VWS V14.01,2013-06-17 14:57:00,
2013-06-17 10:02:00,86.0,75.9,29.78,SSE,165,0.0,4.0,72,0.00,,---,0.00,VWS V14.01,2013-06-17 15:02:00,
2013-06-17 10:07:00,86.5,76.0,29.78,East,92,2.0,4.0,71,0.00,,---,0.00,VWS V14.01,2013-06-17 15:07:00,
2013-06-17 10:12:00,86.0,74.2,29.78,SSE,153,0.0,4.0,68,0.00,,---,0.00,VWS V14.01,2013-06-17 15:12:00,
2013-06-17 10:17:00,86.2,74.4,29.79,South,169,0.0,4.0,68,0.00,,---,0.00,VWS V14.01,2013-06-17 15:17:00,
2013-06-17 10:22:00,86.8,74.5,29.79,SSE,159,1.0,4.0,67,0.00,,---,0.00,VWS V14.01,2013-06-17 15:22:00,
2013-06-17 10:27:00,86.7,74.0,29.79,SSE,167,0.0,4.0,66,0.00,,---,0.00,VWS V14.01,2013-06-17 15:27:00,
2013-06-17 10:32:00,87.1,74.4,29.78,SSE,167,0.0,4.0,66,0.00,,---,0.00,VWS V14.01,2013-06-17 15:32:00,
2013-06-17 10:37:00,87.1,73.4,29.78,South,180,4.0,5.0,64,0.00,,---,0.00,VWS V14.01,2013-06-17 15:37:00,
2013-06-17 10:42:00,86.9,73.3,29.78,South,175,1.0,6.0,64,0.00,,---,0.00,VWS V14.01,2013-06-17 15:42:00,
2013-06-17 10:47:00,87.0,73.4,29.79,South,172,0.0,6.0,64,0.00,,---,0.00,VWS V14.01,2013-06-17 15:47:00,
2013-06-17 10:52:00,87.5,73.8,29.79,SSE,157,0.0,6.0,64,0.00,,---,0.00,VWS V14.01,2013-06-17 15:52:00,
2013-06-17 10:57:00,88.1,75.3,29.79,East,91,0.0,6.0,66,0.00,,---,0.00,VWS V14.01,2013-06-17 15:57:00,
2013-06-17 11:02:00,88.4,74.7,29.80,SSE,165,0.0,6.0,64,0.00,,---,0.00,VWS V14.01,2013-06-17 16:02:00,
2013-06-17 11:07:00,88.3,74.1,29.80,SSE,168,2.0,5.0,63,0.00,,---,0.00,VWS V14.01,2013-06-17 16:07:00,
2013-06-17 11:12:00,88.3,75.5,29.80,SSE,167,0.0,5.0,66,0.00,,---,0.00,VWS V14.01,2013-06-17 16:12:00,
2013-06-17 11:17:00,88.5,75.2,29.80,ESE,118,0.0,5.0,65,0.00,,---,0.00,VWS V14.01,2013-06-17 16:17:00,
2013-06-17 11:22:00,88.3,75.5,29.80,SSE,164,0.0,5.0,66,0.00,,---,0.00,VWS V14.01,2013-06-17 16:22:00,
2013-06-17 11:27:00,88.4,74.7,29.80,SE,146,0.0,5.0,64,0.00,,---,0.00,VWS V14.01,2013-06-17 16:27:00,
2013-06-17 11:32:00,89.0,75.7,29.79,ESE,119,0.0,0.0,65,0.00,,---,0.00,VWS V14.01,2013-06-17 16:32:00,
2013-06-17 11:37:00,89.3,76.0,29.79,East,94,0.0,4.0,65,0.00,,---,0.00,VWS V14.01,2013-06-17 16:37:00,
2013-06-17 11:42:00,90.4,76.6,29.79,ESE,107,0.0,4.0,64,0.00,,---,0.00,VWS V14.01,2013-06-17 16:42:00,
2013-06-17 11:47:00,91.1,75.8,29.79,South,174,3.0,5.0,61,0.00,,---,0.00,VWS V14.01,2013-06-17 16:47:00,
2013-06-17 11:52:00,90.6,74.3,29.79,West,269,0.0,5.0,59,0.00,,---,0.00,VWS V14.01,2013-06-17 16:52:00,
2013-06-17 11:57:00,89.7,75.0,29.79,NE,50,0.0,5.0,62,0.00,,---,0.00,VWS V14.01,2013-06-17 16:57:00,
2013-06-17 12:02:00,89.0,74.3,29.78,East,95,0.0,5.0,62,0.00,,---,0.00,VWS V14.01,2013-06-17 17:02:00,
2013-06-17 12:07:00,88.6,73.4,29.78,SE,146,0.0,4.0,61,0.00,,---,0.00,VWS V14.01,2013-06-17 17:07:00,
2013-06-17 12:12:00,88.8,75.5,29.78,SE,144,0.0,5.0,65,0.00,,---,0.00,VWS V14.01,2013-06-17 17:12:00,
2013-06-17 12:17:00,89.1,75.3,29.78,SSE,148,0.0,5.0,64,0.00,,---,0.00,VWS V14.01,2013-06-17 17:17:00,
2013-06-17 12:22:00,89.3,75.1,29.78,SSW,198,1.0,5.0,63,0.00,,---,0.00,VWS V14.01,2013-06-17 17:22:00,
2013-06-17 12:27:00,89.3,74.6,29.78,East,84,0.0,7.0,62,0.00,,---,0.00,VWS V14.01,2013-06-17 17:27:00,
2013-06-17 12:32:00,89.5,74.8,29.77,SE,127,0.0,1.0,62,0.00,,---,0.00,VWS V14.01,2013-06-17 17:32:00,
2013-06-17 12:37:00,89.7,75.4,29.77,SE,130,0.0,1.0,63,0.00,,---,0.00,VWS V14.01,2013-06-17 17:37:00,
2013-06-17 12:42:00,89.3,75.5,29.77,SSE,154,0.0,4.0,64,0.00,,---,0.00,VWS V14.01,2013-06-17 17:42:00,
2013-06-17 12:47:00,88.9,76.1,29.76,SSE,149,0.0,4.0,66,0.00,,---,0.00,VWS V14.01,2013-06-17 17:47:00,
2013-06-17 12:52:00,88.9,76.1,29.76,SE,135,0.0,5.0,66,0.00,,---,0.00,VWS V14.01,2013-06-17 17:52:00,
2013-06-17 12:57:00,88.0,76.6,29.76,SSE,163,0.0,5.0,69,0.04,,---,0.04,VWS V14.01,2013-06-17 17:57:00,
2013-06-17 13:02:00,86.4,76.7,29.75,West,281,3.0,3.0,73,0.06,,---,0.06,VWS V14.01,2013-06-17 18:02:00,
2013-06-17 13:07:00,84.2,75.8,29.75,NW,309,1.0,3.0,76,0.06,,---,0.06,VWS V14.01,2013-06-17 18:07:00,
2013-06-17 13:12:00,83.0,76.9,29.75,NW,308,0.0,3.0,82,0.06,,---,0.06,VWS V14.01,2013-06-17 18:12:00,
2013-06-17 13:17:00,82.4,76.7,29.75,NW,309,0.0,3.0,83,0.06,,---,0.06,VWS V14.01,2013-06-17 18:17:00,
2013-06-17 13:22:00,82.1,77.2,29.75,NW,308,0.0,3.0,85,0.06,,---,0.06,VWS V14.01,2013-06-17 18:22:00,
2013-06-17 13:27:00,81.9,77.3,29.75,NW,308,0.0,3.0,86,0.06,,---,0.06,VWS V14.01,2013-06-17 18:27:00,
2013-06-17 13:32:00,81.5,76.6,29.75,NW,309,0.0,0.0,85,0.06,,---,0.06,VWS V14.01,2013-06-17 18:32:00,
2013-06-17 13:37:00,81.0,75.7,29.75,NW,308,0.0,0.0,84,0.08,,---,0.08,VWS V14.01,2013-06-17 18:37:00,
2013-06-17 13:42:00,80.4,74.8,29.75,ENE,61,0.0,2.0,83,0.09,,---,0.09,VWS V14.01,2013-06-17 18:42:00,
2013-06-17 13:47:00,80.0,74.7,29.74,ENE,61,0.0,2.0,84,0.09,,---,0.09,VWS V14.01,2013-06-17 18:47:00,
2013-06-17 13:52:00,79.5,74.2,29.74,ENE,61,0.0,2.0,84,0.09,,---,0.09,VWS V14.01,2013-06-17 18:52:00,
2013-06-17 13:57:00,79.1,73.8,29.74,SSE,159,7.0,7.0,84,0.09,,---,0.09,VWS V14.01,2013-06-17 18:57:00,
2013-06-17 14:02:00,76.9,69.5,29.75,East,84,3.0,3.0,78,0.03,,---,0.09,VWS V14.01,2013-06-17 19:02:00,
2013-06-17 14:07:00,75.1,68.5,29.75,SSW,212,3.0,7.0,80,0.03,,---,0.09,VWS V14.01,2013-06-17 19:07:00,
2013-06-17 14:12:00,73.5,68.0,29.75,WNW,288,0.0,7.0,83,0.05,,---,0.11,VWS V14.01,2013-06-17 19:12:00,
2013-06-17 14:17:00,72.4,68.0,29.77,SSE,157,0.0,7.0,86,0.06,,---,0.12,VWS V14.01,2013-06-17 19:17:00,
2013-06-17 14:22:00,71.9,68.2,29.77,SW,230,0.0,7.0,88,0.06,,---,0.12,VWS V14.01,2013-06-17 19:22:00,
2013-06-17 14:27:00,71.8,68.4,29.77,West,270,2.0,7.0,89,0.06,,---,0.12,VWS V14.01,2013-06-17 19:27:00,
2013-06-17 14:32:00,71.7,68.6,29.82,NE,34,0.0,1.0,90,0.07,,---,0.13,VWS V14.01,2013-06-17 19:32:00,
2013-06-17 14:37:00,71.3,68.2,29.82,NNE,14,0.0,3.0,90,0.08,,---,0.14,VWS V14.01,2013-06-17 19:37:00,
2013-06-17 14:42:00,71.2,68.1,29.82,North,5,2.0,3.0,90,0.09,,---,0.15,VWS V14.01,2013-06-17 19:42:00,
2013-06-17 14:47:00,71.1,68.3,29.81,West,264,3.0,4.0,91,0.09,,---,0.15,VWS V14.01,2013-06-17 19:47:00,
2013-06-17 14:52:00,71.0,68.2,29.81,West,281,3.0,5.0,91,0.09,,---,0.15,VWS V14.01,2013-06-17 19:52:00,
2013-06-17 14:57:00,70.8,68.1,29.81,NW,304,1.0,5.0,91,0.09,,---,0.15,VWS V14.01,2013-06-17 19:57:00,
2013-06-17 15:02:00,70.7,67.9,29.79,NW,305,3.0,3.0,91,0.06,,---,0.15,VWS V14.01,2013-06-17 20:02:00,
2013-06-17 15:07:00,70.7,67.9,29.79,WNW,296,0.0,3.0,91,0.06,,---,0.15,VWS V14.01,2013-06-17 20:07:00,
2013-06-17 15:12:00,70.5,67.8,29.79,West,276,0.0,3.0,91,0.07,,---,0.16,VWS V14.01,2013-06-17 20:12:00,
2013-06-17 15:17:00,70.5,67.8,29.78,West,277,0.0,3.0,91,0.07,,---,0.16,VWS V14.01,2013-06-17 20:17:00,
2013-06-17 15:22:00,70.6,68.2,29.78,West,277,0.0,3.0,92,0.07,,---,0.16,VWS V14.01,2013-06-17 20:22:00,
2013-06-17 15:27:00,70.6,68.2,29.78,West,277,0.0,3.0,92,0.07,,---,0.16,VWS V14.01,2013-06-17 20:27:00,
2013-06-17 15:32:00,70.7,68.3,29.77,West,279,0.0,0.0,92,0.03,,---,0.16,VWS V14.01,2013-06-17 20:32:00,
2013-06-17 15:37:00,70.9,68.8,29.77,West,279,0.0,0.0,93,0.03,,---,0.16,VWS V14.01,2013-06-17 20:37:00,
2013-06-17 15:42:00,71.1,69.0,29.77,West,279,0.0,1.0,93,0.03,,---,0.16,VWS V14.01,2013-06-17 20:42:00,
2013-06-17 15:47:00,71.3,69.2,29.76,West,279,0.0,1.0,93,0.03,,---,0.16,VWS V14.01,2013-06-17 20:47:00,
2013-06-17 15:52:00,71.6,69.5,29.76,West,279,0.0,1.0,93,0.03,,---,0.16,VWS V14.01,2013-06-17 20:52:00,
2013-06-17 15:57:00,71.8,69.7,29.76,West,280,0.0,1.0,93,0.03,,---,0.16,VWS V14.01,2013-06-17 20:57:00,
2013-06-17 16:02:00,72.1,70.0,29.77,West,280,0.0,1.0,93,0.03,,---,0.16,VWS V14.01,2013-06-17 21:02:00,
2013-06-17 16:07:00,72.3,70.2,29.77,West,280,0.0,1.0,93,0.01,,---,0.16,VWS V14.01,2013-06-17 21:07:00,
2013-06-17 16:12:00,72.4,70.3,29.77,West,279,0.0,1.0,93,0.01,,---,0.16,VWS V14.01,2013-06-17 21:12:00,
2013-06-17 16:17:00,72.4,70.3,29.78,West,279,0.0,1.0,93,0.01,,---,0.16,VWS V14.01,2013-06-17 21:17:00,
2013-06-17 16:22:00,72.6,70.5,29.78,West,279,0.0,1.0,93,0.01,,---,0.16,VWS V14.01,2013-06-17 21:22:00,
2013-06-17 16:27:00,72.6,70.2,29.78,West,279,0.0,1.0,92,0.01,,---,0.16,VWS V14.01,2013-06-17 21:27:00,
2013-06-17 16:32:00,72.7,70.2,29.77,West,279,0.0,0.0,92,0.01,,---,0.17,VWS V14.01,2013-06-17 21:32:00,
2013-06-17 16:37:00,72.9,70.8,29.77,West,279,0.0,2.0,93,0.01,,---,0.17,VWS V14.01,2013-06-17 21:37:00,
2013-06-17 16:42:00,72.8,70.7,29.77,East,101,0.0,2.0,93,0.01,,---,0.17,VWS V14.01,2013-06-17 21:42:00,
2013-06-17 16:47:00,72.7,70.6,29.77,East,90,0.0,3.0,93,0.01,,---,0.17,VWS V14.01,2013-06-17 21:47:00,
2013-06-17 16:52:00,72.6,70.5,29.77,East,91,0.0,3.0,93,0.01,,---,0.17,VWS V14.01,2013-06-17 21:52:00,
2013-06-17 16:57:00,72.5,70.4,29.77,East,90,0.0,3.0,93,0.01,,---,0.17,VWS V14.01,2013-06-17 21:57:00,
2013-06-17 17:02:00,72.4,70.3,29.78,East,92,0.0,0.0,93,0.01,,---,0.17,VWS V14.01,2013-06-17 22:02:00,
2013-06-17 17:07:00,72.3,70.2,29.78,SSE,165,0.0,3.0,93,0.01,,---,0.17,VWS V14.01,2013-06-17 22:07:00,
2013-06-17 17:12:00,72.1,70.0,29.78,South,181,4.0,4.0,93,0.01,,---,0.17,VWS V14.01,2013-06-17 22:12:00,
2013-06-17 17:17:00,71.8,69.7,29.77,SE,134,0.0,4.0,93,0.01,,---,0.17,VWS V14.01,2013-06-17 22:17:00,
2013-06-17 17:22:00,71.7,69.6,29.77,SE,134,0.0,4.0,93,0.01,,---,0.17,VWS V14.01,2013-06-17 22:22:00,
2013-06-17 17:27:00,71.6,69.5,29.77,SSE,153,0.0,4.0,93,0.01,,---,0.17,VWS V14.01,2013-06-17 22:27:00,
2013-06-17 17:32:00,71.7,69.9,29.77,SSE,153,0.0,0.0,94,0.00,,---,0.17,VWS V14.01,2013-06-17 22:32:00,
2013-06-17 17:37:00,71.8,70.0,29.77,SSE,152,0.0,0.0,94,0.00,,---,0.17,VWS V14.01,2013-06-17 22:37:00,
2013-06-17 17:42:00,72.0,70.2,29.77,SSE,153,0.0,0.0,94,0.01,,---,0.18,VWS V14.01,2013-06-17 22:42:00,
2013-06-17 17:47:00,72.1,70.3,29.77,SSE,153,0.0,0.0,94,0.01,,---,0.18,VWS V14.01,2013-06-17 22:47:00,
2013-06-17 17:52:00,72.1,70.3,29.77,SSE,152,0.0,1.0,94,0.01,,---,0.18,VWS V14.01,2013-06-17 22:52:00,
2013-06-17 17:57:00,72.2,70.4,29.77,SE,130,1.0,1.0,94,0.01,,---,0.18,VWS V14.01,2013-06-17 22:57:00,
2013-06-17 18:02:00,72.1,70.3,29.77,ENE,78,1.0,2.0,94,0.01,,---,0.18,VWS V14.01,2013-06-17 23:02:00,
2013-06-17 18:07:00,72.0,70.2,29.77,ENE,78,0.0,2.0,94,0.01,,---,0.18,VWS V14.01,2013-06-17 23:07:00,
2013-06-17 18:12:00,71.9,70.1,29.77,ENE,78,0.0,2.0,94,0.01,,---,0.18,VWS V14.01,2013-06-17 23:12:00,
2013-06-17 18:17:00,71.9,70.1,29.77,ENE,78,0.0,2.0,94,0.01,,---,0.18,VWS V14.01,2013-06-17 23:17:00,
2013-06-17 18:22:00,71.8,70.0,29.77,ENE,78,1.0,2.0,94,0.01,,---,0.18,VWS V14.01,2013-06-17 23:22:00,
2013-06-17 18:27:00,71.9,70.1,29.77,ENE,78,0.0,2.0,94,0.01,,---,0.18,VWS V14.01,2013-06-17 23:27:00,
2013-06-17 18:32:00,71.9,70.1,29.77,ENE,76,1.0,1.0,94,0.01,,---,0.18,VWS V14.01,2013-06-17 23:32:00,
2013-06-17 18:37:00,71.8,70.0,29.77,East,80,1.0,3.0,94,0.01,,---,0.18,VWS V14.01,2013-06-17 23:37:00,
2013-06-17 18:42:00,71.7,69.9,29.77,East,80,0.0,3.0,94,0.01,,---,0.18,VWS V14.01,2013-06-17 23:42:00,
2013-06-17 18:47:00,71.7,69.9,29.77,East,84,1.0,3.0,94,0.01,,---,0.18,VWS V14.01,2013-06-17 23:47:00,
2013-06-17 18:52:00,71.7,69.9,29.77,ENE,78,0.0,3.0,94,0.01,,---,0.18,VWS V14.01,2013-06-17 23:52:00,
2013-06-17 18:57:00,71.7,69.9,29.77,East,79,0.0,3.0,94,0.01,,---,0.18,VWS V14.01,2013-06-17 23:57:00,
2013-06-17 19:02:00,71.7,69.9,29.77,ENE,78,0.0,0.0,94,0.00,,---,0.18,VWS V14.01,2013-06-18 00:02:00,
2013-06-17 19:07:00,71.7,69.9,29.77,ENE,78,0.0,1.0,94,0.00,,---,0.18,VWS V14.01,2013-06-18 00:07:00,
2013-06-17 19:12:00,71.7,69.9,29.77,ENE,78,0.0,1.0,94,0.00,,---,0.18,VWS V14.01,2013-06-18 00:12:00,
2013-06-17 19:17:00,71.7,69.9,29.76,ENE,78,1.0,3.0,94,0.00,,---,0.18,VWS V14.01,2013-06-18 00:17:00,
2013-06-17 19:22:00,71.6,69.8,29.76,NNE,32,0.0,3.0,94,0.00,,---,0.18,VWS V14.01,2013-06-18 00:22:00,
2013-06-17 19:27:00,71.6,69.8,29.76,NE,44,0.0,3.0,94,0.00,,---,0.18,VWS V14.01,2013-06-18 00:27:00,
2013-06-17 19:32:00,71.6,69.8,29.77,NE,45,0.0,0.0,94,0.00,,---,0.18,VWS V14.01,2013-06-18 00:32:00,
2013-06-17 19:37:00,71.5,69.7,29.77,NE,45,0.0,1.0,94,0.00,,---,0.18,VWS V14.01,2013-06-18 00:37:00,
2013-06-17 19:42:00,71.3,69.5,29.77,NNE,26,0.0,2.0,94,0.00,,---,0.18,VWS V14.01,2013-06-18 00:42:00,
2013-06-17 19:47:00,71.2,69.4,29.77,NNE,23,0.0,2.0,94,0.00,,---,0.18,VWS V14.01,2013-06-18 00:47:00,
2013-06-17 19:52:00,71.1,69.3,29.77,NNE,22,0.0,2.0,94,0.00,,---,0.18,VWS V14.01,2013-06-18 00:52:00,
2013-06-17 19:57:00,71.1,69.3,29.77,NW,307,0.0,3.0,94,0.00,,---,0.18,VWS V14.01,2013-06-18 00:57:00,
2013-06-17 20:02:00,70.9,69.1,29.76,NW,307,0.0,0.0,94,0.00,,---,0.18,VWS V14.01,2013-06-18 01:02:00,
2013-06-17 20:07:00,70.8,69.0,29.76,NW,308,0.0,0.0,94,0.00,,---,0.18,VWS V14.01,2013-06-18 01:07:00,
2013-06-17 20:12:00,70.8,69.0,29.76,NW,307,0.0,0.0,94,0.01,,---,0.19,VWS V14.01,2013-06-18 01:12:00,
2013-06-17 20:17:00,70.7,68.9,29.75,NW,307,0.0,1.0,94,0.01,,---,0.19,VWS V14.01,2013-06-18 01:17:00,
2013-06-17 20:22:00,70.7,68.6,29.75,NW,307,0.0,2.0,93,0.01,,---,0.19,VWS V14.01,2013-06-18 01:22:00,
2013-06-17 20:27:00,70.6,68.8,29.75,NW,307,0.0,2.0,94,0.01,,---,0.19,VWS V14.01,2013-06-18 01:27:00,
2013-06-17 20:32:00,70.7,68.9,29.75,NW,307,0.0,0.0,94,0.01,,---,0.19,VWS V14.01,2013-06-18 01:32:00,
2013-06-17 20:37:00,70.7,68.9,29.75,NW,307,0.0,1.0,94,0.01,,---,0.19,VWS V14.01,2013-06-18 01:37:00,
2013-06-17 20:42:00,70.6,68.8,29.75,NW,308,0.0,3.0,94,0.01,,---,0.19,VWS V14.01,2013-06-18 01:42:00,
2013-06-17 20:47:00,70.5,68.7,29.76,North,5,1.0,5.0,94,0.01,,---,0.19,VWS V14.01,2013-06-18 01:47:00,
2013-06-17 20:52:00,70.5,68.7,29.76,WNW,298,2.0,5.0,94,0.01,,---,0.19,VWS V14.01,2013-06-18 01:52:00,
2013-06-17 20:57:00,70.5,68.7,29.76,NNW,337,0.0,5.0,94,0.01,,---,0.19,VWS V14.01,2013-06-18 01:57:00,
2013-06-17 21:02:00,70.4,68.6,29.76,North,355,1.0,1.0,94,0.01,,---,0.19,VWS V14.01,2013-06-18 02:02:00,
2013-06-17 21:07:00,70.3,68.5,29.76,NNW,333,0.0,6.0,94,0.01,,---,0.19,VWS V14.01,2013-06-18 02:07:00,
2013-06-17 21:12:00,70.3,68.5,29.76,North,355,4.0,6.0,94,0.01,,---,0.19,VWS V14.01,2013-06-18 02:12:00,
2013-06-17 21:17:00,70.2,68.4,29.76,North,9,1.0,7.0,94,0.01,,---,0.19,VWS V14.01,2013-06-18 02:17:00,
2013-06-17 21:22:00,70.2,68.4,29.76,ENE,61,3.0,7.0,94,0.01,,---,0.19,VWS V14.01,2013-06-18 02:22:00,
2013-06-17 21:27:00,70.2,68.4,29.76,North,11,0.0,7.0,94,0.01,,---,0.19,VWS V14.01,2013-06-18 02:27:00,
2013-06-17 21:32:00,70.2,68.4,29.77,East,84,3.0,3.0,94,0.01,,---,0.20,VWS V14.01,2013-06-18 02:32:00,
2013-06-17 21:37:00,69.9,68.1,29.77,East,90,4.0,7.0,94,0.05,,---,0.24,VWS V14.01,2013-06-18 02:37:00,
2013-06-17 21:42:00,69.7,67.9,29.77,ENE,67,0.0,7.0,94,0.17,,---,0.36,VWS V14.01,2013-06-18 02:42:00,
2013-06-17 21:47:00,69.5,67.7,29.77,NNE,22,1.0,7.0,94,0.25,,---,0.44,VWS V14.01,2013-06-18 02:47:00,
2013-06-17 21:52:00,69.4,67.6,29.77,NNE,22,1.0,7.0,94,0.28,,---,0.47,VWS V14.01,2013-06-18 02:52:00,
2013-06-17 21:57:00,69.3,67.5,29.77,NE,47,2.0,7.0,94,0.29,,---,0.48,VWS V14.01,2013-06-18 02:57:00,
2013-06-17 22:02:00,69.2,67.7,29.77,ENE,67,1.0,2.0,95,0.29,,---,0.48,VWS V14.01,2013-06-18 03:02:00,
2013-06-17 22:07:00,69.2,67.7,29.77,WNW,285,4.0,6.0,95,0.29,,---,0.48,VWS V14.01,2013-06-18 03:07:00,
2013-06-17 22:12:00,69.2,67.7,29.77,ENE,61,0.0,6.0,95,0.29,,---,0.48,VWS V14.01,2013-06-18 03:12:00,
2013-06-17 22:17:00,69.1,67.6,29.77,North,5,1.0,6.0,95,0.30,,---,0.49,VWS V14.01,2013-06-18 03:17:00,
2013-06-17 22:22:00,68.9,67.4,29.77,NE,49,2.0,10.0,95,0.30,,---,0.49,VWS V14.01,2013-06-18 03:22:00,
2013-06-17 22:27:00,68.7,67.2,29.77,NE,44,2.0,10.0,95,0.30,,---,0.49,VWS V14.01,2013-06-18 03:27:00,
2013-06-17 22:32:00,68.6,67.1,29.78,NE,36,3.0,5.0,95,0.30,,---,0.50,VWS V14.01,2013-06-18 03:32:00,
2013-06-17 22:37:00,68.3,66.8,29.78,East,90,3.0,7.0,95,0.30,,---,0.50,VWS V14.01,2013-06-18 03:37:00,
2013-06-17 22:42:00,68.1,66.6,29.78,East,84,4.0,12.0,95,0.31,,---,0.51,VWS V14.01,2013-06-18 03:42:00,
2013-06-17 22:47:00,68.0,66.5,29.77,North,355,2.0,12.0,95,0.32,,---,0.52,VWS V14.01,2013-06-18 03:47:00,
2013-06-17 22:52:00,67.9,66.4,29.77,ENE,70,3.0,12.0,95,0.32,,---,0.52,VWS V14.01,2013-06-18 03:52:00,
2013-06-17 22:57:00,67.8,66.3,29.77,ENE,63,3.0,12.0,95,0.34,,---,0.54,VWS V14.01,2013-06-18 03:57:00,
2013-06-17 23:01:00,67.8,66.3,29.77,NE,36,3.0,12.0,95,0.34,,---,0.54,VWS V14.01,2013-06-18 04:01:00,
2013-06-17 23:02:00,67.7,66.2,29.77,East,84,5.0,5.0,95,0.07,,---,0.55,VWS V14.01,2013-06-18 04:02:00,
2013-06-17 23:07:00,67.7,66.2,29.77,ENE,74,3.0,7.0,95,0.07,,---,0.55,VWS V14.01,2013-06-18 04:07:00,
2013-06-17 23:12:00,67.7,66.2,29.77,North,5,4.0,7.0,95,0.08,,---,0.56,VWS V14.01,2013-06-18 04:12:00,
2013-06-17 23:17:00,67.7,66.2,29.78,East,84,5.0,8.0,95,0.08,,---,0.56,VWS V14.01,2013-06-18 04:17:00,
2013-06-17 23:22:00,67.7,66.2,29.78,ENE,58,3.0,10.0,95,0.08,,---,0.56,VWS V14.01,2013-06-18 04:22:00,
2013-06-17 23:27:00,67.6,66.1,29.78,ENE,72,8.0,14.0,95,0.14,,---,0.62,VWS V14.01,2013-06-18 04:27:00,
2013-06-17 23:32:00,67.4,65.9,29.77,ENE,68,4.0,4.0,95,0.14,,---,0.64,VWS V14.01,2013-06-18 04:32:00,
2013-06-17 23:37:00,67.4,65.9,29.77,ENE,71,4.0,10.0,95,0.15,,---,0.65,VWS V14.01,2013-06-18 04:37:00,
2013-06-17 23:42:00,67.3,65.8,29.77,ENE,65,3.0,10.0,95,0.16,,---,0.66,VWS V14.01,2013-06-18 04:42:00,
2013-06-17 23:47:00,67.1,65.6,29.78,NE,45,3.0,11.0,95,0.17,,---,0.67,VWS V14.01,2013-06-18 04:47:00,
2013-06-17 23:52:00,67.0,65.5,29.78,East,99,4.0,11.0,95,0.17,,---,0.67,VWS V14.01,2013-06-18 04:52:00,
2013-06-17 23:57:00,66.9,65.4,29.78,ESE,112,3.0,11.0,95,0.18,,---,0.68,VWS V14.01,2013-06-18 04:57:00,